Year,Month,Day,Hour,Minute,Value (Times are PST for windspeed in km/hr)
2016,05,08,00,00,17.60
2016,05,08,00,01,16.90
2016,05,08,00,02,17.00
2016,05,08,00,03,13.80
2016,05,08,00,04,17.00
2016,05,08,00,05,20.80
2016,05,08,00,06,19.60
2016,05,08,00,07,17.50
2016,05,08,00,08,18.00
2016,05,08,00,09,19.80
2016,05,08,00,10,14.10
2016,05,08,00,11,16.40
2016,05,08,00,12,12.60
2016,05,08,00,13,13.00
2016,05,08,00,14,20.80
2016,05,08,00,15,12.30
2016,05,08,00,16,13.80
2016,05,08,00,17,15.70
2016,05,08,00,18,18.60
2016,05,08,00,19,9.30
2016,05,08,00,20,17.60
2016,05,08,00,21,16.30
2016,05,08,00,22,26.30
2016,05,08,00,23,16.90
2016,05,08,00,24,15.90
2016,05,08,00,25,20.40
2016,05,08,00,26,19.00
2016,05,08,00,27,16.20
2016,05,08,00,28,10.50
2016,05,08,00,29,17.10
2016,05,08,00,30,18.80
2016,05,08,00,31,12.70
2016,05,08,00,32,16.70
2016,05,08,00,33,15.70
2016,05,08,00,34,13.60
2016,05,08,00,35,17.20
2016,05,08,00,36,16.20
2016,05,08,00,37,19.30
2016,05,08,00,38,18.30
2016,05,08,00,39,20.70
2016,05,08,00,40,17.20
2016,05,08,00,41,13.50
2016,05,08,00,42,16.30
2016,05,08,00,43,18.60
2016,05,08,00,44,15.30
2016,05,08,00,45,13.60
2016,05,08,00,46,18.70
2016,05,08,00,47,16.00
2016,05,08,00,48,17.00
2016,05,08,00,49,13.80
2016,05,08,00,50,12.30
2016,05,08,00,51,14.20
2016,05,08,00,52,11.60
2016,05,08,00,53,14.90
2016,05,08,00,54,10.80
2016,05,08,00,55,11.30
2016,05,08,00,56,15.50
2016,05,08,00,57,21.50
2016,05,08,00,58,20.50
2016,05,08,00,59,18.70
2016,05,08,01,00,16.90
2016,05,08,01,01,15.50
2016,05,08,01,02,17.70
2016,05,08,01,03,18.20
2016,05,08,01,04,15.40
2016,05,08,01,05,17.50
2016,05,08,01,06,15.20
2016,05,08,01,07,23.70
2016,05,08,01,08,18.80
2016,05,08,01,09,16.90
2016,05,08,01,10,19.60
2016,05,08,01,11,23.80
2016,05,08,01,12,30.20
2016,05,08,01,13,20.10
2016,05,08,01,14,14.70
2016,05,08,01,15,15.60
2016,05,08,01,16,17.70
2016,05,08,01,17,19.90
2016,05,08,01,18,23.30
2016,05,08,01,19,16.50
2016,05,08,01,20,20.20
2016,05,08,01,21,24.90
2016,05,08,01,22,10.20
2016,05,08,01,23,15.00
2016,05,08,01,24,13.80
2016,05,08,01,25,15.70
2016,05,08,01,26,16.40
2016,05,08,01,27,17.10
2016,05,08,01,28,27.00
2016,05,08,01,29,19.70
2016,05,08,01,30,17.20
2016,05,08,01,31,19.30
2016,05,08,01,32,22.00
2016,05,08,01,33,11.40
2016,05,08,01,34,15.60
2016,05,08,01,35,12.70
2016,05,08,01,36,9.20
2016,05,08,01,37,15.10
2016,05,08,01,38,18.90
2016,05,08,01,39,15.50
2016,05,08,01,40,16.80
2016,05,08,01,41,16.50
2016,05,08,01,42,15.70
2016,05,08,01,43,13.80
2016,05,08,01,44,14.90
2016,05,08,01,45,10.90
2016,05,08,01,46,13.60
2016,05,08,01,47,13.60
2016,05,08,01,48,20.50
2016,05,08,01,49,10.90
2016,05,08,01,50,14.20
2016,05,08,01,51,11.60
2016,05,08,01,52,18.70
2016,05,08,01,53,15.00
2016,05,08,01,54,12.50
2016,05,08,01,55,16.60
2016,05,08,01,56,13.50
2016,05,08,01,57,12.10
2016,05,08,01,58,15.80
2016,05,08,01,59,18.60
2016,05,08,02,00,22.90
2016,05,08,02,01,26.80
2016,05,08,02,02,28.20
2016,05,08,02,03,20.80
2016,05,08,02,04,17.10
2016,05,08,02,05,24.70
2016,05,08,02,06,19.70
2016,05,08,02,07,22.30
2016,05,08,02,08,18.80
2016,05,08,02,09,16.40
2016,05,08,02,10,20.20
2016,05,08,02,11,26.60
2016,05,08,02,12,18.30
2016,05,08,02,13,16.70
2016,05,08,02,14,10.50
2016,05,08,02,15,14.20
2016,05,08,02,16,10.80
2016,05,08,02,17,17.50
2016,05,08,02,18,20.80
2016,05,08,02,19,14.30
2016,05,08,02,20,18.70
2016,05,08,02,21,22.20
2016,05,08,02,22,19.40
2016,05,08,02,23,19.50
2016,05,08,02,24,20.80
2016,05,08,02,25,20.90
2016,05,08,02,26,14.60
2016,05,08,02,27,19.20
2016,05,08,02,28,22.30
2016,05,08,02,29,17.00
2016,05,08,02,30,18.50
2016,05,08,02,31,18.70
2016,05,08,02,32,21.30
2016,05,08,02,33,14.30
2016,05,08,02,34,21.00
2016,05,08,02,35,19.60
2016,05,08,02,36,16.00
2016,05,08,02,37,14.40
2016,05,08,02,38,25.60
2016,05,08,02,39,16.50
2016,05,08,02,40,9.30
2016,05,08,02,41,15.30
2016,05,08,02,42,19.60
2016,05,08,02,43,17.10
2016,05,08,02,44,21.50
2016,05,08,02,45,20.00
2016,05,08,02,46,15.90
2016,05,08,02,47,16.10
2016,05,08,02,48,15.50
2016,05,08,02,49,25.10
2016,05,08,02,50,21.20
2016,05,08,02,51,18.60
2016,05,08,02,52,23.50
2016,05,08,02,53,20.40
2016,05,08,02,54,15.50
2016,05,08,02,55,16.70
2016,05,08,02,56,23.30
2016,05,08,02,57,17.50
2016,05,08,02,58,22.10
2016,05,08,02,59,15.90
2016,05,08,03,00,14.40
2016,05,08,03,01,12.80
2016,05,08,03,02,18.20
2016,05,08,03,03,19.30
2016,05,08,03,04,22.40
2016,05,08,03,05,17.70
2016,05,08,03,06,15.90
2016,05,08,03,07,14.60
2016,05,08,03,08,20.50
2016,05,08,03,09,17.50
2016,05,08,03,10,19.20
2016,05,08,03,11,14.90
2016,05,08,03,12,15.30
2016,05,08,03,13,15.60
2016,05,08,03,14,23.70
2016,05,08,03,15,20.70
2016,05,08,03,16,16.50
2016,05,08,03,17,13.80
2016,05,08,03,18,12.40
2016,05,08,03,19,15.70
2016,05,08,03,20,14.40
2016,05,08,03,21,18.80
2016,05,08,03,22,15.30
2016,05,08,03,23,18.00
2016,05,08,03,24,17.70
2016,05,08,03,25,18.50
2016,05,08,03,26,16.00
2016,05,08,03,27,17.80
2016,05,08,03,28,11.70
2016,05,08,03,29,15.20
2016,05,08,03,30,8.00
2016,05,08,03,31,17.80
2016,05,08,03,32,13.20
2016,05,08,03,33,14.40
2016,05,08,03,34,8.90
2016,05,08,03,35,13.60
2016,05,08,03,36,15.40
2016,05,08,03,37,15.70
2016,05,08,03,38,10.10
2016,05,08,03,39,6.60
2016,05,08,03,40,13.80
2016,05,08,03,41,13.00
2016,05,08,03,42,15.50
2016,05,08,03,43,11.30
2016,05,08,03,44,9.20
2016,05,08,03,45,12.30
2016,05,08,03,46,9.40
2016,05,08,03,47,11.20
2016,05,08,03,48,15.00
2016,05,08,03,49,13.10
2016,05,08,03,50,13.20
2016,05,08,03,51,10.10
2016,05,08,03,52,13.10
2016,05,08,03,53,13.50
2016,05,08,03,54,14.90
2016,05,08,03,55,10.90
2016,05,08,03,56,14.10
2016,05,08,03,57,19.60
2016,05,08,03,58,16.40
2016,05,08,03,59,16.40
2016,05,08,04,00,16.30
2016,05,08,04,01,19.10
2016,05,08,04,02,14.60
2016,05,08,04,03,13.30
2016,05,08,04,04,10.50
2016,05,08,04,05,13.60
2016,05,08,04,06,18.70
2016,05,08,04,07,15.30
2016,05,08,04,08,16.60
2016,05,08,04,09,12.30
2016,05,08,04,10,12.60
2016,05,08,04,11,15.30
2016,05,08,04,12,20.10
2016,05,08,04,13,14.60
2016,05,08,04,14,11.10
2016,05,08,04,15,15.70
2016,05,08,04,16,17.10
2016,05,08,04,17,12.40
2016,05,08,04,18,15.00
2016,05,08,04,19,19.50
2016,05,08,04,20,14.40
2016,05,08,04,21,18.60
2016,05,08,04,22,15.10
2016,05,08,04,23,18.30
2016,05,08,04,24,19.50
2016,05,08,04,25,15.20
2016,05,08,04,26,13.20
2016,05,08,04,27,15.50
2016,05,08,04,28,11.00
2016,05,08,04,29,10.50
2016,05,08,04,30,12.30
2016,05,08,04,31,15.50
2016,05,08,04,32,16.40
2016,05,08,04,33,16.80
2016,05,08,04,34,18.90
2016,05,08,04,35,18.70
2016,05,08,04,36,30.80
2016,05,08,04,37,21.00
2016,05,08,04,38,23.50
2016,05,08,04,39,20.20
2016,05,08,04,40,16.10
2016,05,08,04,41,18.30
2016,05,08,04,42,22.00
2016,05,08,04,43,13.10
2016,05,08,04,44,11.30
2016,05,08,04,45,13.30
2016,05,08,04,46,15.20
2016,05,08,04,47,12.80
2016,05,08,04,48,17.90
2016,05,08,04,49,15.50
2016,05,08,04,50,13.50
2016,05,08,04,51,12.10
2016,05,08,04,52,17.60
2016,05,08,04,53,14.10
2016,05,08,04,54,11.50
2016,05,08,04,55,16.90
2016,05,08,04,56,14.60
2016,05,08,04,57,16.70
2016,05,08,04,58,10.50
2016,05,08,04,59,18.20
2016,05,08,05,00,22.20
2016,05,08,05,01,16.60
2016,05,08,05,02,17.20
2016,05,08,05,03,15.90
2016,05,08,05,04,15.30
2016,05,08,05,05,14.20
2016,05,08,05,06,15.50
2016,05,08,05,07,18.10
2016,05,08,05,08,14.20
2016,05,08,05,09,22.40
2016,05,08,05,10,15.40
2016,05,08,05,11,14.10
2016,05,08,05,12,17.70
2016,05,08,05,13,12.80
2016,05,08,05,14,8.90
2016,05,08,05,15,22.30
2016,05,08,05,16,17.80
2016,05,08,05,17,17.20
2016,05,08,05,18,17.50
2016,05,08,05,19,17.10
2016,05,08,05,20,10.50
2016,05,08,05,21,17.90
2016,05,08,05,22,19.00
2016,05,08,05,23,20.30
2016,05,08,05,24,14.20
2016,05,08,05,25,14.60
2016,05,08,05,26,12.40
2016,05,08,05,27,12.30
2016,05,08,05,28,21.50
2016,05,08,05,29,12.10
2016,05,08,05,30,7.90
2016,05,08,05,31,10.60
2016,05,08,05,32,15.00
2016,05,08,05,33,14.20
2016,05,08,05,34,16.00
2016,05,08,05,35,19.40
2016,05,08,05,36,20.60
2016,05,08,05,37,11.90
2016,05,08,05,38,17.20
2016,05,08,05,39,11.30
2016,05,08,05,40,13.70
2016,05,08,05,41,12.10
2016,05,08,05,42,7.60
2016,05,08,05,43,16.80
2016,05,08,05,44,15.50
2016,05,08,05,45,13.40
2016,05,08,05,46,10.70
2016,05,08,05,47,10.80
2016,05,08,05,48,14.20
2016,05,08,05,49,13.20
2016,05,08,05,50,15.40
2016,05,08,05,51,18.30
2016,05,08,05,52,21.60
2016,05,08,05,53,18.00
2016,05,08,05,54,17.30
2016,05,08,05,55,19.40
2016,05,08,05,56,19.90
2016,05,08,05,57,15.40
2016,05,08,05,58,18.80
2016,05,08,05,59,14.30
2016,05,08,06,00,17.00
2016,05,08,06,01,20.00
2016,05,08,06,02,17.20
2016,05,08,06,03,14.60
2016,05,08,06,04,16.90
2016,05,08,06,05,13.50
2016,05,08,06,06,13.60
2016,05,08,06,07,14.30
2016,05,08,06,08,12.60
2016,05,08,06,09,15.60
2016,05,08,06,10,13.30
2016,05,08,06,11,15.00
2016,05,08,06,12,21.80
2016,05,08,06,13,14.60
2016,05,08,06,14,16.90
2016,05,08,06,15,16.80
2016,05,08,06,16,19.70
2016,05,08,06,17,17.50
2016,05,08,06,18,12.90
2016,05,08,06,19,19.80
2016,05,08,06,20,19.30
2016,05,08,06,21,15.30
2016,05,08,06,22,18.70
2016,05,08,06,23,16.60
2016,05,08,06,24,12.60
2016,05,08,06,25,16.10
2016,05,08,06,26,20.80
2016,05,08,06,27,15.00
2016,05,08,06,28,17.60
2016,05,08,06,29,13.90
2016,05,08,06,30,17.10
2016,05,08,06,31,21.80
2016,05,08,06,32,18.50
2016,05,08,06,33,13.00
2016,05,08,06,34,12.40
2016,05,08,06,35,9.30
2016,05,08,06,36,9.70
2016,05,08,06,37,8.10
2016,05,08,06,38,5.10
2016,05,08,06,39,8.60
2016,05,08,06,40,10.20
2016,05,08,06,41,7.40
2016,05,08,06,42,9.00
2016,05,08,06,43,7.10
2016,05,08,06,44,5.60
2016,05,08,06,45,10.20
2016,05,08,06,46,13.90
2016,05,08,06,47,10.60
2016,05,08,06,48,17.90
2016,05,08,06,49,13.40
2016,05,08,06,50,12.60
2016,05,08,06,51,11.80
2016,05,08,06,52,13.60
2016,05,08,06,53,13.60
2016,05,08,06,54,13.10
2016,05,08,06,55,13.50
2016,05,08,06,56,16.00
2016,05,08,06,57,11.60
2016,05,08,06,58,11.80
2016,05,08,06,59,7.20
2016,05,08,07,00,12.80
2016,05,08,07,01,11.10
2016,05,08,07,02,10.50
2016,05,08,07,03,12.70
2016,05,08,07,04,13.90
2016,05,08,07,05,16.20
2016,05,08,07,06,17.80
2016,05,08,07,07,10.10
2016,05,08,07,08,16.60
2016,05,08,07,09,12.00
2016,05,08,07,10,7.00
2016,05,08,07,11,8.50
2016,05,08,07,12,14.60
2016,05,08,07,13,16.80
2016,05,08,07,14,8.90
2016,05,08,07,15,6.00
2016,05,08,07,16,10.30
2016,05,08,07,17,13.20
2016,05,08,07,18,17.70
2016,05,08,07,19,14.70
2016,05,08,07,20,15.90
2016,05,08,07,21,17.80
2016,05,08,07,22,10.50
2016,05,08,07,23,12.80
2016,05,08,07,24,11.10
2016,05,08,07,25,12.60
2016,05,08,07,26,13.20
2016,05,08,07,27,9.40
2016,05,08,07,28,13.80
2016,05,08,07,29,14.40
2016,05,08,07,30,11.90
2016,05,08,07,31,11.80
2016,05,08,07,32,8.20
2016,05,08,07,33,18.90
2016,05,08,07,34,8.80
2016,05,08,07,35,7.10
2016,05,08,07,36,13.80
2016,05,08,07,37,14.20
2016,05,08,07,38,14.20
2016,05,08,07,39,11.40
2016,05,08,07,40,8.00
2016,05,08,07,41,17.90
2016,05,08,07,42,13.40
2016,05,08,07,43,10.50
2016,05,08,07,44,18.30
2016,05,08,07,45,15.40
2016,05,08,07,46,17.10
2016,05,08,07,47,14.10
2016,05,08,07,48,12.70
2016,05,08,07,49,14.10
2016,05,08,07,50,12.20
2016,05,08,07,51,15.90
2016,05,08,07,52,12.20
2016,05,08,07,53,18.50
2016,05,08,07,54,19.30
2016,05,08,07,55,18.20
2016,05,08,07,56,10.50
2016,05,08,07,57,15.60
2016,05,08,07,58,12.90
2016,05,08,07,59,12.00
2016,05,08,08,00,10.10
2016,05,08,08,01,10.80
2016,05,08,08,02,10.30
2016,05,08,08,03,14.90
2016,05,08,08,04,12.10
2016,05,08,08,05,16.70
2016,05,08,08,06,21.00
2016,05,08,08,07,20.50
2016,05,08,08,08,13.90
2016,05,08,08,09,18.30
2016,05,08,08,10,16.40
2016,05,08,08,11,12.60
2016,05,08,08,12,21.30
2016,05,08,08,13,17.60
2016,05,08,08,14,19.50
2016,05,08,08,15,19.60
2016,05,08,08,16,15.30
2016,05,08,08,17,25.60
2016,05,08,08,18,15.70
2016,05,08,08,19,11.30
2016,05,08,08,20,16.40
2016,05,08,08,21,12.10
2016,05,08,08,22,18.50
2016,05,08,08,23,17.50
2016,05,08,08,24,12.10
2016,05,08,08,25,11.50
2016,05,08,08,26,12.30
2016,05,08,08,27,13.80
2016,05,08,08,28,9.60
2016,05,08,08,29,18.10
2016,05,08,08,30,8.50
2016,05,08,08,31,16.50
2016,05,08,08,32,11.20
2016,05,08,08,33,17.20
2016,05,08,08,34,13.40
2016,05,08,08,35,13.20
2016,05,08,08,36,21.40
2016,05,08,08,37,20.40
2016,05,08,08,38,18.00
2016,05,08,08,39,15.80
2016,05,08,08,40,9.30
2016,05,08,08,41,10.90
2016,05,08,08,42,10.00
2016,05,08,08,43,18.60
2016,05,08,08,44,22.60
2016,05,08,08,45,17.70
2016,05,08,08,46,14.90
2016,05,08,08,47,18.30
2016,05,08,08,48,13.60
2016,05,08,08,49,10.20
2016,05,08,08,50,21.30
2016,05,08,08,51,19.90
2016,05,08,08,52,21.30
2016,05,08,08,53,11.30
2016,05,08,08,54,7.60
2016,05,08,08,55,10.10
2016,05,08,08,56,19.60
2016,05,08,08,57,20.50
2016,05,08,08,58,22.20
2016,05,08,08,59,16.90
2016,05,08,09,00,13.40
2016,05,08,09,01,12.50
2016,05,08,09,02,20.10
2016,05,08,09,03,20.00
2016,05,08,09,04,16.50
2016,05,08,09,05,8.70
2016,05,08,09,06,8.90
2016,05,08,09,07,16.70
2016,05,08,09,08,13.10
2016,05,08,09,09,14.70
2016,05,08,09,10,14.70
2016,05,08,09,11,17.40
2016,05,08,09,12,20.10
2016,05,08,09,13,20.30
2016,05,08,09,14,16.60
2016,05,08,09,15,20.70
2016,05,08,09,16,22.70
2016,05,08,09,17,20.30
2016,05,08,09,18,17.40
2016,05,08,09,19,17.20
2016,05,08,09,20,16.70
2016,05,08,09,21,19.20
2016,05,08,09,22,18.40
2016,05,08,09,23,16.60
2016,05,08,09,24,22.20
2016,05,08,09,25,23.10
2016,05,08,09,26,23.90
2016,05,08,09,27,23.30
2016,05,08,09,28,26.70
2016,05,08,09,29,21.60
2016,05,08,09,30,16.10
2016,05,08,09,31,23.10
2016,05,08,09,32,20.80
2016,05,08,09,33,23.40
2016,05,08,09,34,14.60
2016,05,08,09,35,18.00
2016,05,08,09,36,17.30
2016,05,08,09,37,23.60
2016,05,08,09,38,14.20
2016,05,08,09,39,11.90
2016,05,08,09,40,13.80
2016,05,08,09,41,22.20
2016,05,08,09,42,17.00
2016,05,08,09,43,11.30
2016,05,08,09,44,13.00
2016,05,08,09,45,20.00
2016,05,08,09,46,14.60
2016,05,08,09,47,20.20
2016,05,08,09,48,20.70
2016,05,08,09,49,19.00
2016,05,08,09,50,21.80
2016,05,08,09,51,17.50
2016,05,08,09,52,14.60
2016,05,08,09,53,16.40
2016,05,08,09,54,14.40
2016,05,08,09,55,14.00
2016,05,08,09,56,11.90
2016,05,08,09,57,9.70
2016,05,08,09,58,11.60
2016,05,08,09,59,11.60
2016,05,08,10,00,15.20
2016,05,08,10,01,17.10
2016,05,08,10,02,8.30
2016,05,08,10,03,12.30
2016,05,08,10,04,8.50
2016,05,08,10,05,9.30
2016,05,08,10,06,9.20
2016,05,08,10,07,16.20
2016,05,08,10,08,10.90
2016,05,08,10,09,11.20
2016,05,08,10,10,20.30
2016,05,08,10,11,20.40
2016,05,08,10,12,17.30
2016,05,08,10,13,21.80
2016,05,08,10,14,13.80
2016,05,08,10,15,12.90
2016,05,08,10,16,10.60
2016,05,08,10,17,11.80
2016,05,08,10,18,12.60
2016,05,08,10,19,8.10
2016,05,08,10,20,11.80
2016,05,08,10,21,14.60
2016,05,08,10,22,21.50
2016,05,08,10,23,14.70
2016,05,08,10,24,10.50
2016,05,08,10,25,18.90
2016,05,08,10,26,21.70
2016,05,08,10,27,17.60
2016,05,08,10,28,18.00
2016,05,08,10,29,13.90
2016,05,08,10,30,17.20
2016,05,08,10,31,14.40
2016,05,08,10,32,22.00
2016,05,08,10,33,15.50
2016,05,08,10,34,14.00
2016,05,08,10,35,13.60
2016,05,08,10,36,12.40
2016,05,08,10,37,14.40
2016,05,08,10,38,15.40
2016,05,08,10,39,8.90
2016,05,08,10,40,11.10
2016,05,08,10,41,10.10
2016,05,08,10,42,20.10
2016,05,08,10,43,24.60
2016,05,08,10,44,16.30
2016,05,08,10,45,7.20
2016,05,08,10,46,16.80
2016,05,08,10,47,15.20
2016,05,08,10,48,12.00
2016,05,08,10,49,11.60
2016,05,08,10,50,14.70
2016,05,08,10,51,13.70
2016,05,08,10,52,11.80
2016,05,08,10,53,14.20
2016,05,08,10,54,13.90
2016,05,08,10,55,12.70
2016,05,08,10,56,16.10
2016,05,08,10,57,14.60
2016,05,08,10,58,15.70
2016,05,08,10,59,17.00
2016,05,08,11,00,15.90
2016,05,08,11,01,14.40
2016,05,08,11,02,15.80
2016,05,08,11,03,10.90
2016,05,08,11,04,19.10
2016,05,08,11,05,17.70
2016,05,08,11,06,9.10
2016,05,08,11,07,11.20
2016,05,08,11,08,9.20
2016,05,08,11,09,12.10
2016,05,08,11,10,14.20
2016,05,08,11,11,9.70
2016,05,08,11,12,13.70
2016,05,08,11,13,15.40
2016,05,08,11,14,14.40
2016,05,08,11,15,10.30
2016,05,08,11,16,10.80
2016,05,08,11,17,8.70
2016,05,08,11,18,9.60
2016,05,08,11,19,12.20
2016,05,08,11,20,10.80
2016,05,08,11,21,7.60
2016,05,08,11,22,9.30
2016,05,08,11,23,8.90
2016,05,08,11,24,9.40
2016,05,08,11,25,10.30
2016,05,08,11,26,12.90
2016,05,08,11,27,7.80
2016,05,08,11,28,12.00
2016,05,08,11,29,14.60
2016,05,08,11,30,16.50
2016,05,08,11,31,14.70
2016,05,08,11,32,11.80
2016,05,08,11,33,12.60
2016,05,08,11,34,14.20
2016,05,08,11,35,14.40
2016,05,08,11,36,9.00
2016,05,08,11,37,11.80
2016,05,08,11,38,11.70
2016,05,08,11,39,16.50
2016,05,08,11,40,15.10
2016,05,08,11,41,13.10
2016,05,08,11,42,15.10
2016,05,08,11,43,14.00
2016,05,08,11,44,13.80
2016,05,08,11,45,15.30
2016,05,08,11,46,11.10
2016,05,08,11,47,10.50
2016,05,08,11,48,7.50
2016,05,08,11,49,14.60
2016,05,08,11,50,12.50
2016,05,08,11,51,19.80
2016,05,08,11,52,11.80
2016,05,08,11,53,13.60
2016,05,08,11,54,10.70
2016,05,08,11,55,10.50
2016,05,08,11,56,13.10
2016,05,08,11,57,15.20
2016,05,08,11,58,17.50
2016,05,08,11,59,12.50
2016,05,08,12,00,11.70
2016,05,08,12,01,10.40
2016,05,08,12,02,10.20
2016,05,08,12,03,19.20
2016,05,08,12,04,14.40
2016,05,08,12,05,12.60
2016,05,08,12,06,8.50
2016,05,08,12,07,15.00
2016,05,08,12,08,9.70
2016,05,08,12,09,11.30
2016,05,08,12,10,13.90
2016,05,08,12,11,10.20
2016,05,08,12,12,13.30
2016,05,08,12,13,8.70
2016,05,08,12,14,6.40
2016,05,08,12,15,8.80
2016,05,08,12,16,13.40
2016,05,08,12,17,14.40
2016,05,08,12,18,11.30
2016,05,08,12,19,17.30
2016,05,08,12,20,13.60
2016,05,08,12,21,14.40
2016,05,08,12,22,13.40
2016,05,08,12,23,10.50
2016,05,08,12,24,6.90
2016,05,08,12,25,7.00
2016,05,08,12,26,7.80
2016,05,08,12,27,13.00
2016,05,08,12,28,12.70
2016,05,08,12,29,11.00
2016,05,08,12,30,10.50
2016,05,08,12,31,10.20
2016,05,08,12,32,9.20
2016,05,08,12,33,14.40
2016,05,08,12,34,10.70
2016,05,08,12,35,8.00
2016,05,08,12,36,9.70
2016,05,08,12,37,6.70
2016,05,08,12,38,6.70
2016,05,08,12,39,9.20
2016,05,08,12,40,11.00
2016,05,08,12,41,9.80
2016,05,08,12,42,10.50
2016,05,08,12,43,8.40
2016,05,08,12,44,9.60
2016,05,08,12,45,6.00
2016,05,08,12,46,9.00
2016,05,08,12,47,7.20
2016,05,08,12,48,6.40
2016,05,08,12,49,6.40
2016,05,08,12,50,6.40
2016,05,08,12,51,6.40
2016,05,08,12,52,6.50
2016,05,08,12,53,6.20
2016,05,08,12,54,5.10
2016,05,08,12,55,7.20
2016,05,08,12,56,7.80
2016,05,08,12,57,6.60
2016,05,08,12,58,9.30
2016,05,08,12,59,9.90
2016,05,08,13,00,6.90
2016,05,08,13,01,4.60
2016,05,08,13,02,5.40
2016,05,08,13,03,4.10
2016,05,08,13,04,10.50
2016,05,08,13,05,8.40
2016,05,08,13,06,8.60
2016,05,08,13,07,8.40
2016,05,08,13,08,10.30
2016,05,08,13,09,3.90
2016,05,08,13,10,6.50
2016,05,08,13,11,6.90
2016,05,08,13,12,9.60
2016,05,08,13,13,9.20
2016,05,08,13,14,7.20
2016,05,08,13,15,10.40
2016,05,08,13,16,10.60
2016,05,08,13,17,10.30
2016,05,08,13,18,8.60
2016,05,08,13,19,10.30
2016,05,08,13,20,8.80
2016,05,08,13,21,6.80
2016,05,08,13,22,6.80
2016,05,08,13,23,4.70
2016,05,08,13,24,5.00
2016,05,08,13,25,6.20
2016,05,08,13,26,4.30
2016,05,08,13,27,8.50
2016,05,08,13,28,7.20
2016,05,08,13,29,8.30
2016,05,08,13,30,5.50
2016,05,08,13,31,5.70
2016,05,08,13,32,8.10
2016,05,08,13,33,7.90
2016,05,08,13,34,5.70
2016,05,08,13,35,10.30
2016,05,08,13,36,7.00
2016,05,08,13,37,8.10
2016,05,08,13,38,10.10
2016,05,08,13,39,6.20
2016,05,08,13,40,6.70
2016,05,08,13,41,13.90
2016,05,08,13,42,8.80
2016,05,08,13,43,6.50
2016,05,08,13,44,13.40
2016,05,08,13,45,11.50
2016,05,08,13,46,5.20
2016,05,08,13,47,9.10
2016,05,08,13,48,9.20
2016,05,08,13,49,7.30
2016,05,08,13,50,10.10
2016,05,08,13,51,10.70
2016,05,08,13,52,8.20
2016,05,08,13,53,13.90
2016,05,08,13,54,15.00
2016,05,08,13,55,9.10
2016,05,08,13,56,7.00
2016,05,08,13,57,7.60
2016,05,08,13,58,9.10
2016,05,08,13,59,7.60
2016,05,08,14,00,10.20
2016,05,08,14,01,8.30
2016,05,08,14,02,6.60
2016,05,08,14,03,6.40
2016,05,08,14,04,6.80
2016,05,08,14,05,9.70
2016,05,08,14,06,7.00
2016,05,08,14,07,10.50
2016,05,08,14,08,12.30
2016,05,08,14,09,11.20
2016,05,08,14,10,7.20
2016,05,08,14,11,5.10
2016,05,08,14,12,8.00
2016,05,08,14,13,7.30
2016,05,08,14,14,4.50
2016,05,08,14,15,6.80
2016,05,08,14,16,6.20
2016,05,08,14,17,6.80
2016,05,08,14,18,9.10
2016,05,08,14,19,10.30
2016,05,08,14,20,12.00
2016,05,08,14,21,6.40
2016,05,08,14,22,5.10
2016,05,08,14,23,10.10
2016,05,08,14,24,7.00
2016,05,08,14,25,5.10
2016,05,08,14,26,6.10
2016,05,08,14,27,12.10
2016,05,08,14,28,10.10
2016,05,08,14,29,13.20
2016,05,08,14,30,6.60
2016,05,08,14,31,7.20
2016,05,08,14,32,8.20
2016,05,08,14,33,12.70
2016,05,08,14,34,9.60
2016,05,08,14,35,12.70
2016,05,08,14,36,7.80
2016,05,08,14,37,8.00
2016,05,08,14,38,8.90
2016,05,08,14,39,10.70
2016,05,08,14,40,9.10
2016,05,08,14,41,7.00
2016,05,08,14,42,8.20
2016,05,08,14,43,7.20
2016,05,08,14,44,6.70
2016,05,08,14,45,13.30
2016,05,08,14,46,11.70
2016,05,08,14,47,9.80
2016,05,08,14,48,12.50
2016,05,08,14,49,10.90
2016,05,08,14,50,6.00
2016,05,08,14,51,11.30
2016,05,08,14,52,9.10
2016,05,08,14,53,8.60
2016,05,08,14,54,6.50
2016,05,08,14,55,10.50
2016,05,08,14,56,7.70
2016,05,08,14,57,7.60
2016,05,08,14,58,8.70
2016,05,08,14,59,7.10
2016,05,08,15,00,6.00
2016,05,08,15,01,7.30
2016,05,08,15,02,7.90
2016,05,08,15,03,5.20
2016,05,08,15,04,9.00
2016,05,08,15,05,9.90
2016,05,08,15,06,6.40
2016,05,08,15,07,6.40
2016,05,08,15,08,6.70
2016,05,08,15,09,3.50
2016,05,08,15,10,2.20
2016,05,08,15,11,5.60
2016,05,08,15,12,7.40
2016,05,08,15,13,7.30
2016,05,08,15,14,8.30
2016,05,08,15,15,7.40
2016,05,08,15,16,5.20
2016,05,08,15,17,10.70
2016,05,08,15,18,7.40
2016,05,08,15,19,7.50
2016,05,08,15,20,6.20
2016,05,08,15,21,6.30
2016,05,08,15,22,7.30
2016,05,08,15,23,6.00
2016,05,08,15,24,5.60
2016,05,08,15,25,11.20
2016,05,08,15,26,10.50
2016,05,08,15,27,11.70
2016,05,08,15,28,12.80
2016,05,08,15,29,8.60
2016,05,08,15,30,8.60
2016,05,08,15,31,10.80
2016,05,08,15,32,5.60
2016,05,08,15,33,9.10
2016,05,08,15,34,7.70
2016,05,08,15,35,10.90
2016,05,08,15,36,10.60
2016,05,08,15,37,13.40
2016,05,08,15,38,8.20
2016,05,08,15,39,10.50
2016,05,08,15,40,11.50
2016,05,08,15,41,6.60
2016,05,08,15,42,9.40
2016,05,08,15,43,13.00
2016,05,08,15,44,13.40
2016,05,08,15,45,9.80
2016,05,08,15,46,10.10
2016,05,08,15,47,9.70
2016,05,08,15,48,14.40
2016,05,08,15,49,9.60
2016,05,08,15,50,9.70
2016,05,08,15,51,10.50
2016,05,08,15,52,6.90
2016,05,08,15,53,15.40
2016,05,08,15,54,13.80
2016,05,08,15,55,9.20
2016,05,08,15,56,8.00
2016,05,08,15,57,11.90
2016,05,08,15,58,13.60
2016,05,08,15,59,13.30
2016,05,08,16,00,4.50
2016,05,08,16,01,6.00
2016,05,08,16,02,6.40
2016,05,08,16,03,5.00
2016,05,08,16,04,9.80
2016,05,08,16,05,9.90
2016,05,08,16,06,12.00
2016,05,08,16,07,11.90
2016,05,08,16,08,5.60
2016,05,08,16,09,10.50
2016,05,08,16,10,6.60
2016,05,08,16,11,9.00
2016,05,08,16,12,8.60
2016,05,08,16,13,11.60
2016,05,08,16,14,12.70
2016,05,08,16,15,8.80
2016,05,08,16,16,5.20
2016,05,08,16,17,8.70
2016,05,08,16,18,8.20
2016,05,08,16,19,6.40
2016,05,08,16,20,9.40
2016,05,08,16,21,11.20
2016,05,08,16,22,8.60
2016,05,08,16,23,11.10
2016,05,08,16,24,9.40
2016,05,08,16,25,8.10
2016,05,08,16,26,9.00
2016,05,08,16,27,10.30
2016,05,08,16,28,9.30
2016,05,08,16,29,7.70
2016,05,08,16,30,8.90
2016,05,08,16,31,10.50
2016,05,08,16,32,8.40
2016,05,08,16,33,5.30
2016,05,08,16,34,7.20
2016,05,08,16,35,8.90
2016,05,08,16,36,15.70
2016,05,08,16,37,12.20
2016,05,08,16,38,9.30
2016,05,08,16,39,6.90
2016,05,08,16,40,7.80
2016,05,08,16,41,7.90
2016,05,08,16,42,8.40
2016,05,08,16,43,7.10
2016,05,08,16,44,7.60
2016,05,08,16,45,9.00
2016,05,08,16,46,8.40
2016,05,08,16,47,13.00
2016,05,08,16,48,9.10
2016,05,08,16,49,10.70
2016,05,08,16,50,8.70
2016,05,08,16,51,10.80
2016,05,08,16,52,8.90
2016,05,08,16,53,9.70
2016,05,08,16,54,9.00
2016,05,08,16,55,6.40
2016,05,08,16,56,13.60
2016,05,08,16,57,18.40
2016,05,08,16,58,5.90
2016,05,08,16,59,11.00
2016,05,08,17,00,14.80
2016,05,08,17,01,11.00
2016,05,08,17,02,12.70
2016,05,08,17,03,9.70
2016,05,08,17,04,10.10
2016,05,08,17,05,8.70
2016,05,08,17,06,9.70
2016,05,08,17,07,10.70
2016,05,08,17,08,11.60
2016,05,08,17,09,15.00
2016,05,08,17,10,13.30
2016,05,08,17,11,9.10
2016,05,08,17,12,15.10
2016,05,08,17,13,9.40
2016,05,08,17,14,8.00
2016,05,08,17,15,10.30
2016,05,08,17,16,11.20
2016,05,08,17,17,16.30
2016,05,08,17,18,9.00
2016,05,08,17,19,8.60
2016,05,08,17,20,14.70
2016,05,08,17,21,13.40
2016,05,08,17,22,10.30
2016,05,08,17,23,12.70
2016,05,08,17,24,11.30
2016,05,08,17,25,20.20
2016,05,08,17,26,13.80
2016,05,08,17,27,10.20
2016,05,08,17,28,7.60
2016,05,08,17,29,10.00
2016,05,08,17,30,13.50